When you browse on this site, cookies collect data to enhance your experience and personalize the content and advertising you see.
Visit our Privacy Policy to learn more. By continuing to use the site, you agree to this use of cookies and data.
  • en France
  • Liste des pays
  • À 7 jours
  • Température de l'eau
  • Carte satellitaire
  • Carte météo
  • Widgets météo
  • user-avatar
    Se connecter

    Météo par heure à Hobart

    Ce jour, 22 Avril, Lundi

    Heure Température Précipitation Vent Pression Humidité
    00:00 +19°C° 0.2 mm 1 m/s 749 mmHg 75%
    01:00 +18°C° 0.2 mm 1 m/s 749 mmHg 80%
    02:00 +16°C° 0.2 mm 1 m/s 750 mmHg 82%
    03:00 +16°C° 0.2 mm 2 m/s 750 mmHg 84%
    04:00 +15°C° 0.2 mm 2 m/s 750 mmHg 86%
    05:00 +14°C° 0 mm 2 m/s 751 mmHg 86%
    06:00 +12°C° 0 mm 2 m/s 751 mmHg 85%
    07:00 +10°C° 0 mm 2 m/s 752 mmHg 85%
    08:00 +12°C° 0 mm 2 m/s 752 mmHg 77%
    09:00 +13°C° 0 mm 2 m/s 753 mmHg 69%
    10:00 +14°C° 0 mm 2 m/s 753 mmHg 61%
    11:00 +15°C° 0 mm 2 m/s 753 mmHg 58%
    12:00 +15°C° 0 mm 2 m/s 754 mmHg 56%
    13:00 +16°C° 0 mm 3 m/s 754 mmHg 53%
    14:00 +16°C° 0 mm 3 m/s 754 mmHg 53%
    15:00 +16°C° 0 mm 3 m/s 754 mmHg 54%
    16:00 +16°C° 0 mm 3 m/s 754 mmHg 54%
    17:00 +14°C° 0 mm 2 m/s 755 mmHg 62%
    18:00 +12°C° 0 mm 2 m/s 755 mmHg 69%
    19:00 +11°C° 0 mm 1 m/s 756 mmHg 77%
    20:00 +10°C° 0 mm 1 m/s 756 mmHg 80%
    21:00 +10°C° 0 mm 1 m/s 756 mmHg 83%
    22:00 +8°C° 0 mm 2 m/s 756 mmHg 85%
    23:00 +9°C° 0 mm 1 m/s 756 mmHg 86%

    Demain, 23 Avril, Mardi

    Heure Température Précipitation Vent Pression Humidité
    00:00 +9°C° 0 mm 1 m/s 756 mmHg 87%
    01:00 +9°C° 0 mm 1 m/s 756 mmHg 87%
    02:00 +8°C° 0 mm 1 m/s 756 mmHg 88%
    03:00 +8°C° 0 mm 1 m/s 756 mmHg 89%
    04:00 +8°C° 0 mm 1 m/s 756 mmHg 89%
    05:00 +8°C° 0 mm 1 m/s 756 mmHg 89%
    06:00 +8°C° 0 mm 1 m/s 756 mmHg 89%
    07:00 +8°C° 0 mm 1 m/s 756 mmHg 89%
    08:00 +10°C° 0 mm 1 m/s 756 mmHg 79%
    09:00 +13°C° 0 mm 1 m/s 756 mmHg 68%
    10:00 +16°C° 0 mm 1 m/s 756 mmHg 57%
    11:00 +18°C° 0 mm 1 m/s 756 mmHg 55%
    12:00 +19°C° 0 mm 2 m/s 755 mmHg 53%
    13:00 +20°C° 0 mm 2 m/s 755 mmHg 51%
    14:00 +19°C° 0 mm 2 m/s 755 mmHg 53%
    15:00 +19°C° 0 mm 2 m/s 755 mmHg 56%
    16:00 +18°C° 0 mm 3 m/s 754 mmHg 59%
    17:00 +17°C° 0 mm 2 m/s 755 mmHg 66%
    18:00 +16°C° 0 mm 2 m/s 755 mmHg 73%
    19:00 +14°C° 0 mm 1 m/s 755 mmHg 80%
    20:00 +14°C° 0 mm 1 m/s 755 mmHg 82%
    21:00 +13°C° 0 mm 1 m/s 755 mmHg 85%
    22:00 +13°C° 0 mm 1 m/s 755 mmHg 87%
    23:00 +12°C° 0 mm 1 m/s 755 mmHg 89%

    Après-demain, 24 Avril, Mercredi

    Heure Température Précipitation Vent Pression Humidité
    00:00 +12°C° 0 mm 1 m/s 755 mmHg 90%
    01:00 +11°C° 0 mm 1 m/s 755 mmHg 92%
    02:00 +11°C° 0 mm 1 m/s 754 mmHg 92%
    03:00 +11°C° 0 mm 1 m/s 754 mmHg 93%
    04:00 +10°C° 0 mm 1 m/s 754 mmHg 94%
    05:00 +10°C° 0 mm 1 m/s 754 mmHg 92%
    06:00 +11°C° 0 mm 1 m/s 753 mmHg 90%
    07:00 +11°C° 0 mm 1 m/s 753 mmHg 88%
    08:00 +12°C° 0 mm 1 m/s 753 mmHg 80%
    09:00 +14°C° 0 mm 2 m/s 753 mmHg 72%
    10:00 +15°C° 0 mm 2 m/s 752 mmHg 64%
    11:00 +16°C° 0 mm 2 m/s 752 mmHg 57%
    12:00 +18°C° 0 mm 3 m/s 751 mmHg 50%
    13:00 +19°C° 0 mm 3 m/s 750 mmHg 43%
    14:00 +19°C° 0 mm 4 m/s 749 mmHg 43%
    15:00 +19°C° 0 mm 5 m/s 748 mmHg 43%
    16:00 +17°C° 0 mm 6 m/s 748 mmHg 43%
    17:00 +16°C° 0 mm 5 m/s 747 mmHg 51%
    18:00 +15°C° 0 mm 5 m/s 747 mmHg 59%
    19:00 +13°C° 0 mm 5 m/s 747 mmHg 67%
    20:00 +13°C° 0 mm 5 m/s 747 mmHg 65%
    21:00 +14°C° 0 mm 5 m/s 747 mmHg 64%
    22:00 +14°C° 0 mm 6 m/s 747 mmHg 63%
    23:00 +13°C° 0 mm 6 m/s 747 mmHg 64%

    25 Avril, Jeudi

    Heure Température Précipitation Vent Pression Humidité
    00:00 +12°C° 0 mm 5 m/s 746 mmHg 64%
    01:00 +12°C° 0 mm 5 m/s 746 mmHg 65%
    02:00 +11°C° 0 mm 4 m/s 746 mmHg 67%
    03:00 +11°C° 0 mm 4 m/s 746 mmHg 68%
    04:00 +11°C° 0 mm 3 m/s 745 mmHg 69%
    05:00 +11°C° 0 mm 3 m/s 746 mmHg 69%
    06:00 +11°C° 0 mm 3 m/s 746 mmHg 68%
    07:00 +11°C° 0 mm 3 m/s 746 mmHg 68%
    08:00 +11°C° 0 mm 4 m/s 746 mmHg 65%
    09:00 +12°C° 0 mm 5 m/s 746 mmHg 63%
    10:00 +13°C° 0 mm 5 m/s 746 mmHg 60%
    11:00 +13°C° 0 mm 5 m/s 745 mmHg 58%
    12:00 +14°C° 0 mm 6 m/s 744 mmHg 55%
    13:00 +15°C° 0 mm 6 m/s 744 mmHg 53%
    14:00 +14°C° 0 mm 6 m/s 743 mmHg 55%
    15:00 +14°C° 0 mm 6 m/s 742 mmHg 58%
    16:00 +14°C° 0 mm 6 m/s 742 mmHg 60%
    17:00 +13°C° 0 mm 6 m/s 741 mmHg 60%
    18:00 +12°C° 0 mm 7 m/s 740 mmHg 61%
    19:00 +12°C° 0 mm 7 m/s 740 mmHg 62%
    20:00 +12°C° 0 mm 7 m/s 739 mmHg 61%
    21:00 +12°C° 0 mm 8 m/s 738 mmHg 60%
    22:00 +13°C° 0 mm 8 m/s 738 mmHg 59%
    23:00 +11°C° 0.6 mm 8 m/s 738 mmHg 65%

    26 Avril, Vendredi

    Heure Température Précipitation Vent Pression Humidité
    00:00 +9°C° 0.6 mm 8 m/s 737 mmHg 71%
    01:00 +7°C° 0.6 mm 8 m/s 737 mmHg 77%
    02:00 +6°C° 0.1 mm 8 m/s 737 mmHg 75%
    03:00 +5°C° 0.1 mm 8 m/s 738 mmHg 74%
    04:00 +4°C° 0.1 mm 7 m/s 738 mmHg 72%
    05:00 +4°C° 0 mm 7 m/s 738 mmHg 70%
    06:00 +4°C° 0 mm 7 m/s 739 mmHg 67%
    07:00 +5°C° 0 mm 7 m/s 739 mmHg 65%
    08:00 +5°C° 0 mm 8 m/s 740 mmHg 59%
    09:00 +6°C° 0 mm 9 m/s 740 mmHg 54%
    10:00 +7°C° 0 mm 10 m/s 741 mmHg 48%
    11:00 +7°C° 0.1 mm 10 m/s 741 mmHg 48%
    12:00 +7°C° 0.1 mm 10 m/s 741 mmHg 48%
    13:00 +7°C° 0.1 mm 10 m/s 742 mmHg 48%
    14:00 +7°C° 0.1 mm 9 m/s 742 mmHg 50%
    15:00 +7°C° 0.1 mm 9 m/s 743 mmHg 52%
    16:00 +6°C° 0.1 mm 9 m/s 743 mmHg 54%
    17:00 +6°C° 0 mm 8 m/s 744 mmHg 58%
    18:00 +5°C° 0 mm 7 m/s 745 mmHg 61%
    19:00 +5°C° 0 mm 7 m/s 745 mmHg 64%
    20:00 +5°C° 0 mm 6 m/s 745 mmHg 65%
    21:00 +6°C° 0 mm 5 m/s 745 mmHg 67%
    22:00 +6°C° 0 mm 5 m/s 745 mmHg 68%
    23:00 +6°C° 0 mm 5 m/s 744 mmHg 68%

    27 Avril, Samedi

    Heure Température Précipitation Vent Pression Humidité
    00:00 +7°C° 0 mm 5 m/s 744 mmHg 67%
    01:00 +7°C° 0 mm 5 m/s 743 mmHg 66%
    02:00 +7°C° 0 mm 5 m/s 742 mmHg 67%
    03:00 +8°C° 0 mm 6 m/s 741 mmHg 68%
    04:00 +8°C° 0 mm 6 m/s 740 mmHg 69%
    05:00 +9°C° 0.1 mm 7 m/s 739 mmHg 71%
    06:00 +9°C° 0.1 mm 7 m/s 738 mmHg 72%
    07:00 +9°C° 0.1 mm 8 m/s 738 mmHg 74%
    08:00 +10°C° 0.4 mm 9 m/s 737 mmHg 72%
    09:00 +10°C° 0.4 mm 9 m/s 737 mmHg 69%
    10:00 +11°C° 0.4 mm 10 m/s 737 mmHg 67%
    11:00 +9°C° 0.2 mm 10 m/s 737 mmHg 65%
    12:00 +9°C° 0.2 mm 10 m/s 737 mmHg 64%
    13:00 +8°C° 0.2 mm 10 m/s 737 mmHg 63%
    14:00 +8°C° 0.1 mm 9 m/s 738 mmHg 64%
    15:00 +8°C° 0.1 mm 9 m/s 739 mmHg 65%
    16:00 +9°C° 0.1 mm 8 m/s 739 mmHg 67%
    17:00 +8°C° 0.1 mm 7 m/s 741 mmHg 70%
    18:00 +8°C° 0.1 mm 6 m/s 742 mmHg 73%
    19:00 +7°C° 0.1 mm 6 m/s 744 mmHg 76%
    20:00 +7°C° 0.2 mm 5 m/s 745 mmHg 79%
    21:00 +6°C° 0.2 mm 5 m/s 746 mmHg 81%
    22:00 +6°C° 0.2 mm 5 m/s 747 mmHg 84%
    23:00 +5°C° 0 mm 5 m/s 748 mmHg 84%
    Voir plus